When you browse on this site, cookies collect data to enhance your experience and personalize the content and advertising you see.
Visit our Privacy Policy to learn more. By continuing to use the site, you agree to this use of cookies and data.
  • en Suisse
  • Liste des pays
  • À 7 jours
  • Température de l'eau
  • Carte satellitaire
  • Carte météo
  • Widgets météo
  • user-avatar
    Se connecter

    Météo par heure à Mieleszyn

    Ce jour, 20 Mai, Lundi

    Heure Température Précipitation Vent Pression Humidité
    00:00 +14°C° 0 mm 3 m/s 737 mmHg 92%
    01:00 +14°C° 0 mm 3 m/s 737 mmHg 95%
    02:00 +14°C° 0 mm 3 m/s 736 mmHg 95%
    03:00 +14°C° 0 mm 2 m/s 736 mmHg 95%
    04:00 +14°C° 0 mm 2 m/s 736 mmHg 95%
    05:00 +14°C° 0 mm 3 m/s 735 mmHg 92%
    06:00 +16°C° 0 mm 3 m/s 735 mmHg 89%
    07:00 +18°C° 0 mm 4 m/s 735 mmHg 87%
    08:00 +19°C° 0.9 mm 5 m/s 735 mmHg 81%
    09:00 +21°C° 0.9 mm 6 m/s 735 mmHg 76%
    10:00 +23°C° 0.9 mm 6 m/s 735 mmHg 70%
    11:00 +23°C° 0.2 mm 6 m/s 735 mmHg 67%
    12:00 +23°C° 0.2 mm 6 m/s 735 mmHg 63%
    13:00 +23°C° 0.2 mm 6 m/s 735 mmHg 59%
    14:00 +23°C° 0 mm 6 m/s 735 mmHg 58%
    15:00 +23°C° 0 mm 5 m/s 735 mmHg 56%
    16:00 +23°C° 0 mm 4 m/s 735 mmHg 54%
    17:00 +22°C° 0 mm 3 m/s 735 mmHg 60%
    18:00 +21°C° 0 mm 2 m/s 735 mmHg 65%
    19:00 +19°C° 0 mm 2 m/s 735 mmHg 71%
    20:00 +18°C° 0 mm 2 m/s 735 mmHg 73%
    21:00 +17°C° 0 mm 2 m/s 735 mmHg 76%
    22:00 +16°C° 0 mm 2 m/s 735 mmHg 78%
    23:00 +15°C° 0 mm 2 m/s 736 mmHg 80%

    Demain, 21 Mai, Mardi

    Heure Température Précipitation Vent Pression Humidité
    00:00 +14°C° 0 mm 3 m/s 736 mmHg 83%
    01:00 +13°C° 0 mm 3 m/s 736 mmHg 85%
    02:00 +13°C° 0 mm 3 m/s 736 mmHg 84%
    03:00 +13°C° 0 mm 3 m/s 736 mmHg 83%
    04:00 +13°C° 0 mm 3 m/s 736 mmHg 82%
    05:00 +14°C° 0 mm 3 m/s 736 mmHg 79%
    06:00 +16°C° 0 mm 3 m/s 736 mmHg 77%
    07:00 +17°C° 0 mm 3 m/s 736 mmHg 74%
    08:00 +18°C° 0.1 mm 3 m/s 736 mmHg 70%
    09:00 +19°C° 0.1 mm 3 m/s 736 mmHg 66%
    10:00 +20°C° 0.1 mm 2 m/s 736 mmHg 62%
    11:00 +19°C° 0.2 mm 2 m/s 736 mmHg 64%
    12:00 +19°C° 0.2 mm 2 m/s 736 mmHg 67%
    13:00 +19°C° 0.2 mm 2 m/s 736 mmHg 69%
    14:00 +19°C° 0 mm 2 m/s 736 mmHg 68%
    15:00 +20°C° 0 mm 2 m/s 736 mmHg 67%
    16:00 +20°C° 0 mm 3 m/s 736 mmHg 67%
    17:00 +19°C° 0 mm 2 m/s 736 mmHg 71%
    18:00 +19°C° 0 mm 1 m/s 736 mmHg 76%
    19:00 +18°C° 0 mm 1 m/s 736 mmHg 81%
    20:00 +16°C° 0.2 mm 1 m/s 736 mmHg 84%
    21:00 +16°C° 0.2 mm 2 m/s 736 mmHg 87%
    22:00 +15°C° 0.2 mm 2 m/s 736 mmHg 90%
    23:00 +15°C° 1.7 mm 2 m/s 736 mmHg 91%

    Après-demain, 22 Mai, Mercredi

    Heure Température Précipitation Vent Pression Humidité
    00:00 +14°C° 1.7 mm 3 m/s 736 mmHg 93%
    01:00 +14°C° 1.7 mm 3 m/s 736 mmHg 95%
    02:00 +14°C° 0.6 mm 3 m/s 736 mmHg 95%
    03:00 +14°C° 0.6 mm 4 m/s 736 mmHg 95%
    04:00 +13°C° 0.6 mm 4 m/s 736 mmHg 96%
    05:00 +14°C° 0.2 mm 4 m/s 736 mmHg 95%
    06:00 +14°C° 0.2 mm 3 m/s 736 mmHg 95%
    07:00 +14°C° 0.2 mm 3 m/s 736 mmHg 94%
    08:00 +16°C° 0.3 mm 3 m/s 736 mmHg 93%
    09:00 +16°C° 0.3 mm 3 m/s 736 mmHg 93%
    10:00 +16°C° 0.3 mm 3 m/s 736 mmHg 92%
    11:00 +15°C° 0.7 mm 4 m/s 737 mmHg 90%
    12:00 +16°C° 0.7 mm 5 m/s 737 mmHg 89%
    13:00 +16°C° 0.7 mm 6 m/s 737 mmHg 88%
    14:00 +16°C° 0.3 mm 7 m/s 737 mmHg 88%
    15:00 +15°C° 0.3 mm 7 m/s 738 mmHg 89%
    16:00 +15°C° 0.3 mm 7 m/s 738 mmHg 89%
    17:00 +14°C° 0.3 mm 7 m/s 738 mmHg 91%
    18:00 +12°C° 0.3 mm 7 m/s 738 mmHg 92%
    19:00 +12°C° 0.3 mm 7 m/s 739 mmHg 93%
    20:00 +12°C° 0.7 mm 7 m/s 739 mmHg 94%
    21:00 +12°C° 0.7 mm 7 m/s 739 mmHg 94%
    22:00 +12°C° 0.7 mm 7 m/s 740 mmHg 94%
    23:00 +12°C° 0.4 mm 8 m/s 740 mmHg 94%

    23 Mai, Jeudi

    Heure Température Précipitation Vent Pression Humidité
    00:00 +12°C° 0.4 mm 8 m/s 740 mmHg 94%
    01:00 +11°C° 0.4 mm 8 m/s 740 mmHg 94%
    02:00 +11°C° 0.3 mm 8 m/s 741 mmHg 93%
    03:00 +11°C° 0.3 mm 8 m/s 741 mmHg 93%
    04:00 +10°C° 0.3 mm 8 m/s 741 mmHg 93%
    05:00 +10°C° 0.5 mm 8 m/s 742 mmHg 93%
    06:00 +9°C° 0.5 mm 8 m/s 742 mmHg 93%
    07:00 +9°C° 0.5 mm 8 m/s 743 mmHg 92%
    08:00 +7°C° 0.6 mm 8 m/s 743 mmHg 92%
    09:00 +7°C° 0.6 mm 8 m/s 744 mmHg 92%
    10:00 +6°C° 0.6 mm 8 m/s 744 mmHg 92%
    11:00 +8°C° 0.2 mm 7 m/s 745 mmHg 90%
    12:00 +9°C° 0.2 mm 6 m/s 745 mmHg 87%
    13:00 +10°C° 0.2 mm 5 m/s 745 mmHg 85%
    14:00 +11°C° 0 mm 4 m/s 745 mmHg 82%
    15:00 +12°C° 0 mm 4 m/s 745 mmHg 79%
    16:00 +13°C° 0 mm 3 m/s 745 mmHg 76%
    17:00 +13°C° 0 mm 3 m/s 745 mmHg 77%
    18:00 +13°C° 0 mm 3 m/s 745 mmHg 78%
    19:00 +12°C° 0 mm 3 m/s 745 mmHg 79%
    20:00 +11°C° 0 mm 3 m/s 745 mmHg 81%
    21:00 +10°C° 0 mm 3 m/s 745 mmHg 83%
    22:00 +9°C° 0 mm 3 m/s 746 mmHg 85%
    23:00 +8°C° 0 mm 2 m/s 745 mmHg 86%

    24 Mai, Vendredi

    Heure Température Précipitation Vent Pression Humidité
    00:00 +7°C° 0 mm 2 m/s 745 mmHg 86%
    01:00 +7°C° 0 mm 2 m/s 745 mmHg 86%
    02:00 +6°C° 0 mm 2 m/s 745 mmHg 87%
    03:00 +7°C° 0 mm 1 m/s 745 mmHg 88%
    04:00 +6°C° 0 mm 1 m/s 745 mmHg 89%
    05:00 +8°C° 0 mm 1 m/s 744 mmHg 83%
    06:00 +10°C° 0 mm 1 m/s 744 mmHg 77%
    07:00 +11°C° 0 mm 1 m/s 744 mmHg 71%
    08:00 +13°C° 0 mm 1 m/s 744 mmHg 65%
    09:00 +14°C° 0 mm 2 m/s 744 mmHg 59%
    10:00 +15°C° 0 mm 2 m/s 743 mmHg 53%
    11:00 +16°C° 0 mm 2 m/s 743 mmHg 51%
    12:00 +18°C° 0 mm 1 m/s 742 mmHg 48%
    13:00 +19°C° 0 mm 1 m/s 742 mmHg 46%
    14:00 +19°C° 0 mm 1 m/s 741 mmHg 45%
    15:00 +17°C° 0 mm 0 m/s 741 mmHg 45%
    16:00 +18°C° 0 mm 0 m/s 740 mmHg 44%
    17:00 +18°C° 0 mm 1 m/s 740 mmHg 50%
    18:00 +16°C° 0 mm 1 m/s 740 mmHg 56%
    19:00 +15°C° 0 mm 2 m/s 739 mmHg 62%
    20:00 +14°C° 0 mm 2 m/s 739 mmHg 62%
    21:00 +13°C° 0 mm 2 m/s 739 mmHg 62%
    22:00 +12°C° 0 mm 2 m/s 739 mmHg 61%
    23:00 +12°C° 0 mm 2 m/s 739 mmHg 63%

    25 Mai, Samedi

    Heure Température Précipitation Vent Pression Humidité
    00:00 +10°C° 0 mm 2 m/s 739 mmHg 65%
    01:00 +10°C° 0 mm 2 m/s 739 mmHg 67%
    02:00 +10°C° 0 mm 2 m/s 739 mmHg 68%
    03:00 +9°C° 0 mm 2 m/s 739 mmHg 70%
    04:00 +9°C° 0 mm 2 m/s 739 mmHg 72%
    05:00 +10°C° 0 mm 2 m/s 739 mmHg 70%
    06:00 +13°C° 0 mm 2 m/s 739 mmHg 68%
    07:00 +15°C° 0 mm 2 m/s 739 mmHg 67%
    08:00 +16°C° 0 mm 2 m/s 739 mmHg 62%
    09:00 +19°C° 0 mm 1 m/s 739 mmHg 57%
    10:00 +20°C° 0 mm 1 m/s 739 mmHg 52%
    11:00 +21°C° 0 mm 1 m/s 739 mmHg 50%
    12:00 +22°C° 0 mm 1 m/s 739 mmHg 47%
    13:00 +21°C° 0 mm 0 m/s 739 mmHg 45%
    14:00 +23°C° 0 mm 1 m/s 739 mmHg 45%
    15:00 +23°C° 0 mm 1 m/s 739 mmHg 45%
    16:00 +23°C° 0 mm 1 m/s 739 mmHg 45%
    17:00 +21°C° 0 mm 1 m/s 739 mmHg 50%
    18:00 +20°C° 0 mm 1 m/s 739 mmHg 56%
    19:00 +19°C° 0 mm 1 m/s 739 mmHg 62%
    20:00 +18°C° 0 mm 1 m/s 739 mmHg 64%
    21:00 +16°C° 0 mm 1 m/s 740 mmHg 66%
    22:00 +14°C° 0 mm 0 m/s 740 mmHg 67%
    23:00 +14°C° 0 mm 1 m/s 740 mmHg 72%
    Voir plus